User: anonymous   Login
Location: Norwich
(52.6280°N, 1.3030°E)
Time: 16:55:01
(UTC+01:00)
Language:

APEX - Orbit

View from above orbital plane
View from above orbital plane
View from above satellite
View from above satellite

Ground track
Ground track

The orbit data is extracted from the following two-line orbital elements,

1 23191U 94046A   15241.47477984  .00014808  00000-0  55687-3 0  9997
2 23191 069.9290 288.0910 0665883 071.6561 029.6823 14.22115587 22430
Epoch (UTC): 29 August 2015 11:23:40
Eccentricity: 0.0665883
inclination: 69.9290°
perigee height: 339 km
apogee height: 1297 km
right ascension of ascending node: 288.0910°
argument of perigee: 71.6561°
revolutions per day: 14.22115587
mean anomaly at epoch: 29.6823°
orbit number at epoch: 2243

The dashed part of the orbit path shows where the satellite is in the earth's shadow,  

DLR